Sumburgh, United Kingdom

12:09 PM BST on April 29, 2017 (GMT +0100)
Sumburgh

Weather History for EGPB - February, 2013

Change the Weather History Date:

Thursday, February 21, 2013

  Actual Average Record
Temperature  
Mean Temperature 39 °F -  
Max Temperature 41 °F 42 °F 50 °F (2008)
Min Temperature 37 °F 37 °F 33 °F (2006)
Degree Days  
Heating Degree Days 26    
Moisture  
Dew Point 32 °F    
Average Humidity 75    
Maximum Humidity 87    
Minimum Humidity 65    
Precipitation  
Precipitation 0.00 in - - ()
Sea Level Pressure  
Sea Level Pressure 30.34 in    
Wind  
Wind Speed 17 mph ()    
Max Wind Speed 24 mph    
Max Gust Speed 32 mph    
Visibility 6.2 miles    
Events Rain    
Averages and records for this station are not official NWS values.
T = Trace of Precipitation, MM = Missing Value Source: Averaged Metar Reports

Daily Weather History Graph

Daily Weather History Graph

Search for Another Location

Airport or City:

Trip Planner

Search our weather history database for the weather conditions in past years. The results will help you decide how hot, cold, wet, or windy it might be!

Date:

Astronomy

Feb. 21, 2013 Rise Set
Actual Time 7:25 AM GMT 5:12 PM GMT
Civil Twilight 6:43 AM GMT 5:55 PM GMT
Nautical Twilight 5:55 AM GMT 6:43 PM GMT
Astronomical Twilight 5:07 AM GMT 7:31 PM GMT
Moon 12:29 PM GMT (2/21) 5:06 AM GMT (2/21)
Length of Visible Light 11h 12m
Length of Day
9h 46m
Waxing Gibbous, 82% of the Moon is Illuminated
Feb 21
Waxing Gibbous
Feb 25
Full
Mar 4
Last Quarter
Mar 11
New
Mar 19
First Quarter

Hourly Weather History & Observations

Time (GMT) Temp. Windchill Dew Point Humidity Pressure Visibility Wind Dir Wind Speed Gust Speed Precip Events Conditions
12:20 AM 39.2 °F 29.3 °F 30.2 °F 70% 30.36 in - South 20.7 mph - N/A   Unknown
12:50 AM 39.2 °F 28.7 °F 32.0 °F 75% 30.36 in - SSE 23.0 mph - N/A   Unknown
1:20 AM 37.4 °F 26.1 °F 33.8 °F 87% 30.36 in - SSE 24.2 mph - N/A   Unknown
1:50 AM 39.2 °F 29.3 °F 32.0 °F 75% 30.36 in - South 20.7 mph - N/A   Unknown
2:20 AM 39.2 °F 29.0 °F 35.6 °F 87% 30.36 in - South 21.9 mph - N/A   Unknown
2:50 AM 39.2 °F 29.0 °F 33.8 °F 81% 30.36 in - SSE 21.9 mph - N/A   Unknown
3:20 AM 39.2 °F 29.0 °F 33.8 °F 81% 30.36 in - South 21.9 mph - N/A   Unknown
3:50 AM 39.2 °F 29.8 °F 32.0 °F 75% 30.36 in - South 18.4 mph - N/A   Unknown
4:20 AM 37.4 °F 26.6 °F 33.8 °F 87% 30.36 in - SSE 21.9 mph - N/A   Unknown
4:50 AM 37.4 °F 26.9 °F 33.8 °F 87% 30.36 in - South 20.7 mph 32.2 mph N/A   Unknown
5:20 AM 39.2 °F 29.8 °F 33.8 °F 81% 30.36 in - South 18.4 mph - N/A   Unknown
5:50 AM 37.4 °F 26.6 °F 33.8 °F 87% 30.36 in - South 21.9 mph - N/A   Unknown
6:20 AM 37.4 °F 27.2 °F 33.8 °F 87% 30.36 in - South 19.6 mph - N/A   Unknown
6:50 AM 37.4 °F 26.9 °F 33.8 °F 87% 30.36 in 6.2 mi South 20.7 mph - N/A Rain Light Rain Showers
7:20 AM 37.4 °F 27.5 °F 33.8 °F 87% 30.36 in 6.2 mi South 18.4 mph - N/A Rain Light Rain Showers
7:50 AM 39.2 °F 29.6 °F 33.8 °F 81% 30.36 in 6.2 mi South 19.6 mph - N/A   Mostly Cloudy
8:20 AM 37.4 °F 27.5 °F 33.8 °F 87% 30.36 in 6.2 mi South 18.4 mph - N/A Rain Light Rain Showers
8:50 AM 39.2 °F 29.8 °F 32.0 °F 75% 30.36 in 6.2 mi South 18.4 mph - N/A   Mostly Cloudy
9:20 AM 39.2 °F 29.3 °F 33.8 °F 81% 30.36 in 6.2 mi SSE 20.7 mph - N/A Rain Light Rain Showers
9:50 AM 39.2 °F 30.2 °F 32.0 °F 75% 30.36 in 6.2 mi South 17.3 mph - N/A Rain Light Rain Showers
10:20 AM 39.2 °F 29.6 °F 32.0 °F 75% 30.36 in 6.2 mi SSE 19.6 mph - N/A   Mostly Cloudy
10:50 AM 39.2 °F 30.2 °F 32.0 °F 75% 30.36 in 6.2 mi South 17.3 mph - N/A   Mostly Cloudy
11:20 AM 39.2 °F 29.6 °F 32.0 °F 75% 30.36 in 6.2 mi SSE 19.6 mph - N/A   Mostly Cloudy
11:50 AM 39.2 °F 29.8 °F 30.2 °F 70% 30.36 in 6.2 mi SSE 18.4 mph - N/A   Mostly Cloudy
12:20 PM 39.2 °F 29.3 °F 30.2 °F 70% 30.36 in 6.2 mi SSE 20.7 mph - N/A   Mostly Cloudy
12:50 PM 39.2 °F 30.5 °F 30.2 °F 70% 30.33 in 6.2 mi South 16.1 mph - N/A   Mostly Cloudy
1:20 PM 41.0 °F 32.5 °F 30.2 °F 65% 30.33 in 6.2 mi South 17.3 mph - N/A   Mostly Cloudy
1:50 PM 41.0 °F 32.5 °F 32.0 °F 70% 30.33 in 6.2 mi SSE 17.3 mph - N/A   Mostly Cloudy
2:20 PM 39.2 °F 30.5 °F 30.2 °F 70% 30.33 in 6.2 mi SSE 16.1 mph - N/A   Mostly Cloudy
2:50 PM 39.2 °F 29.6 °F 30.2 °F 70% 30.33 in 6.2 mi SSE 19.6 mph - N/A   Mostly Cloudy
3:20 PM 39.2 °F 30.5 °F 30.2 °F 70% 30.33 in 6.2 mi South 16.1 mph - N/A   Mostly Cloudy
3:50 PM 39.2 °F 31.2 °F 30.2 °F 70% 30.33 in 6.2 mi South 13.8 mph - N/A   Mostly Cloudy
4:20 PM 39.2 °F 31.6 °F 30.2 °F 70% 30.33 in 6.2 mi South 12.7 mph - N/A   Mostly Cloudy
4:50 PM 39.2 °F 32.0 °F 28.4 °F 65% 30.33 in 6.2 mi South 11.5 mph - N/A   Mostly Cloudy
5:20 PM 39.2 °F 31.6 °F 30.2 °F 70% 30.33 in 6.2 mi South 12.7 mph - N/A   Mostly Cloudy
5:50 PM 39.2 °F 31.6 °F 28.4 °F 65% 30.33 in 6.2 mi South 12.7 mph - N/A   Mostly Cloudy
6:20 PM 39.2 °F 32.0 °F 30.2 °F 70% 30.33 in 6.2 mi South 11.5 mph - N/A   Mostly Cloudy
6:50 PM 39.2 °F 32.0 °F 30.2 °F 70% 30.33 in 6.2 mi SSE 11.5 mph - N/A   Mostly Cloudy
8:20 PM 39.2 °F 30.5 °F 30.2 °F 70% 30.30 in 6.2 mi South 16.1 mph - N/A   Overcast
8:50 PM 39.2 °F 32.0 °F 28.4 °F 65% 30.30 in 6.2 mi SSE 11.5 mph - N/A   Overcast
9:20 PM 39.2 °F 32.5 °F 28.4 °F 65% 30.30 in 6.2 mi SSE 10.4 mph - N/A   Overcast
9:50 PM 39.2 °F 31.2 °F 30.2 °F 70% 30.30 in 6.2 mi South 13.8 mph - N/A   Mostly Cloudy
10:20 PM 39.2 °F 30.8 °F 30.2 °F 70% 30.30 in 6.2 mi SSE 15.0 mph - N/A Rain Light Rain Showers
10:50 PM 39.2 °F 30.5 °F 32.0 °F 75% 30.30 in 6.2 mi South 16.1 mph - N/A   Mostly Cloudy
11:20 PM 37.4 °F 30.3 °F 32.0 °F 81% 30.30 in 6.2 mi South 10.4 mph - N/A   Mostly Cloudy
11:50 PM 39.2 °F 32.0 °F 30.2 °F 70% 30.30 in 6.2 mi South 11.5 mph - N/A   Mostly Cloudy